Powrót do katalogu

DMSP 5D-2 F13 DEB

AktywnySSO
NORAD 40577·DEBRIS·🇺🇸 United States

Wystrzelony Mar 24, 1995 z Vandenberg Space Force Base

Loading…

Następne Przeloty (najbliższe 24 godziny)

TLE

ŚwieżeSource: Space-Track

Epoka: Sep 14, 2026, 14:45 UTC

1 40577U 95015EL  26257.61475136  .00004405  00000-0  10688-2 0  9996
2 40577  98.6548 311.7221 0011258 238.0285 121.9816 14.53403942596572

Śledź DMSP 5D-2 F13 DEB w czasie rzeczywistym z AllMySat

Download on the App Store